Home   Weather   Costa Mesa   Past weeks

Flag for USA Past Weather in Costa Mesa, California, USA — Yesterday and Last 2 Weeks

71 °F


Feels Like: 75 °F
Forecast: 59 / 72 °F
Wind: 9 mph from Southwest

Location: John Wayne Airport-Orange County Airport

Current Time: Oct 25, 2016 at 2:12:12 PM

Latest Report: Oct 25, 2016 at 12:53 PM

Visibility: 10 mi

Pressure: 30.08 "Hg

Humidity: 63%

Dew Point: 58 °F

Location of Costa MesaLocation

Past Weather in Costa Mesa — Graph


Costa Mesa Temperature Yesterday

Maximum temperature yesterday: 71 °F (at 1:53 PM)
Minimum temperature yesterday: 61 °F (at 11:53 PM)
Average temperature yesterday: 65 °F

High & Low Weather Summary for the Past Weeks

High95 °F (Oct 20, 1:53 PM)100% (Oct 23, 2:03 AM)30.13 "Hg (Oct 23, 2:03 AM)
Low57 °F (Oct 13, 4:53 AM)10% (Oct 20, 12:53 PM)29.80 "Hg (Oct 21, 4:53 PM)
Average67 °F69%29.97 "Hg
* Reported Oct 10 12:53 PM — Oct 25 12:53 PM, Costa Mesa, Weather by CustomWeather, © 2016

Note: Actual official high and low records may vary slightly from our data, if they occured in-between our weather recording intervals... More about our weather records


Costa Mesa Weather History for the Previous 24 Hours

Scroll right to see more
Time TempWeatherWind HumidityBarometerVisibility
12:53 PM
Tue, Oct 25
71 °FSunny.9 mph63%30.08 "Hg10 mi
11:53 AM71 °FPassing clouds.5 mph59%30.11 "Hg10 mi
10:53 AM68 °FSunny.5 mph65%30.12 "Hg10 mi
9:53 AM66 °FPassing clouds.No wind73%30.12 "Hg10 mi
8:53 AM63 °FPassing clouds.No wind84%30.13 "Hg8 mi
7:53 AM61 °FPassing clouds.No wind87%30.10 "Hg8 mi
6:53 AM59 °FPassing clouds.No wind90%30.09 "Hg10 mi
5:53 AM59 °FPassing clouds.No wind93%30.09 "Hg7 mi
5:00 AM59 °FFog.No wind93%30.09 "Hg3 mi
3:53 AM59 °FFog.No wind96%30.08 "Hg6 mi
2:53 AM60 °FClear.No wind96%30.09 "Hg7 mi
1:53 AM60 °FPassing clouds.3 mph93%30.10 "Hg8 mi
12:53 AM60 °FPassing clouds.No wind93%30.09 "Hg8 mi
11:53 PM
Mon, Oct 24
61 °FClear.No wind93%30.09 "Hg9 mi
10:53 PM62 °FPassing clouds.No wind90%30.10 "Hg10 mi
9:53 PM63 °FPassing clouds.No wind87%30.09 "Hg10 mi
8:53 PM64 °FPassing clouds.3 mph87%30.07 "Hg10 mi
7:53 PM64 °FPartly cloudy.5 mph90%30.05 "Hg10 mi
6:53 PM64 °FMostly cloudy.3 mph87%30.03 "Hg10 mi
5:53 PM65 °FCloudy.5 mph81%30.04 "Hg10 mi
4:53 PM65 °FLight rain. More clouds than sun.No wind85%30.03 "Hg9 mi
3:53 PM65 °FLight rain. Fog.3 mph87%30.04 "Hg6 mi
2:53 PM67 °FThundershowers. Mostly cloudy.7 mph85%30.03 "Hg3 mi
Weather by CustomWeather, © 2016

See weather overviewHow to use our weather pages